Vertical_Velocity
3 6 11 5 12 -3 6 -6 -9 -4 -6 7 6 7 4 6 2 3 -3 -5 -6 -6 5 2 1 -2 6 4 -3 1 -5 -4 -2 -4 -3 -2 -0 -1 1 -0 -1 2 0 -0 -1 1 -6 -2 2 -6 -14 -0 0 -0
-8 2 6 8 14 8 10 -14 3 -1 3 -2 -5 -1 -1 2 1 -3 -15 1 5 -11 -2 6 -2 0 -0 -4 -13 4 -4 -1 -3 -4 -2 -1 -1 -0 -1 -2 -2 -0 -5 -5 -3 -10 -3 -3 -3 -3 1 -1 -5 -2
9 6 19 7 -1 -5 -3 6 5 -6 -2 2 4 3 -4 -3 -4 -4 -7 0 -2 -8 2 0 2 3 4 2 4 -13 1 2 1 1 -5 -1 -2 -3 -1 -4 1 -1 1 -0 -4 -9 -3 -2 0 -0 1 1 3 3
9 8 3 5 5 11 17 0 -6 -5 -6 -7 -1 4 4 2 1 6 -16 4 -2 -4 -9 3 5 -4 2 -1 -4 -2 -6 -3 -1 1 -1 -1 -2 -1 -2 -6 0 -9 -1 -1 -4 -5 -2 -3 4 2 -0 0 -6 2
10 13 0 -3 10 3 3 -9 12 -10 6 -2 -1 -6 6 -1 -2 -1 -3 -5 -0 -5 -7 0 3 3 4 -2 -3 -3 -2 -2 -2 -1 -1 -2 -1 -0 -1 0 -0 -3 -6 -5 -8 -5 0 -5 0 -0 0 4 -5 3
9 0 3 -0 4 -5 -11 -5 -7 -1 -7 7 -2 3 5 1 4 -5 -17 8 -3 -13 -14 -3 3 -3 -4 -3 -1 -1 1 -2 -1 -3 -2 -1 1 -3 -0 -0 -7 -0 0 0 -9 1 -0 1 -2 -3 1 2 0 -1
-1 -6 7 1 -5 -4 -6 0 -1 -13 -6 5 5 2 9 5 -9 -5 -5 -4 1 -1 -9 -2 -2 1 1 2 2 1 -0 1 -0 -1 0 -0 -1 1 0 0 -12 -5 -5 -0 3 -0 2 -1 -3 4 1 -1 2 1
-5 0 0 3 7 8 10 -3 2 4 7 3 -4 -0 -3 -11 -9 -4 6 6 6 -9 -6 -3 -3 -0 5 -1 -1 0 -1 1 1 -1 0 0 1 1 -0 -7 -4 -1 4 3 1 3 -1 -0 1 -0 -1 1 -0 -1
0 5 -2 -7 -10 -8 -3 4 -3 -6 2 1 -6 5 -3 -8 -8 4 5 2 -5 -14 -4 -1 -3 -4 1 0 -1 0 0 -0 2 -2 -1 -1 -2 -3 -10 -3 -2 -2 -3 -0 2 0 -0 -1 -1 -1 2 -2 -3 -2
-1 5 6 7 3 -3 1 -1 3 -0 6 -2 10 4 -3 -10 15 -1 -8 -8 -9 -3 -5 -2 2 -4 -1 2 1 -2 0 -1 0 -7 2 0 -4 -12 -5 -4 4 3 2 0 -0 1 0 1 3 -4 -2 5 3 1
1 4 1 -1 1 4 7 4 4 0 2 -3 -1 -7 -1 3 -4 -6 -3 -6 -0 -2 -1 -1 0 -3 6 -5 -2 -0 -2 -1 1 -9 -4 -1 -2 -3 -0 8 6 3 2 -1 -0 -0 -1 -2 -2 0 -2 -2 1 0
0 1 4 4 0 2 -3 -7 -5 -3 -7 -3 -21 6 6 -2 -8 -9 -1 -1 -1 -3 -0 -1 1 -1 0 -0 -3 -1 -1 -3 -3 -1 3 -0 -0 6 2 10 1 -0 3 1 -1 -2 -2 -1 -4 1 3 3 2 2
-2 -2 -3 -5 -8 -8 -1 5 4 4 3 -2 -13 -9 -6 1 -8 -4 -1 -1 -1 -0 2 -0 -4 -2 -0 1 0 -1 1 -4 -1 -1 -2 -2 0 1 -1 -4 -6 -4 0 5 7 6 5 8 8 4 2 1 -1 1
-2 -0 1 4 4 -1 -4 -4 -8 -9 -4 -10 -4 -5 -8 -4 -1 -2 -2 -2 5 0 -1 -2 -0 -2 1 0 -1 2 -6 -1 -1 1 -2 -1 -2 2 0 1 4 4 5 4 3 3 1 -1 -1 2 -3 -1 -2 -3
-0 1 3 3 7 5 3 -2 -6 -6 -2 -5 -3 -3 -1 2 3 4 -1 -2 1 0 -1 -0 0 2 -0 -1 -1 -2 -2 -1 -1 -2 -1 1 0 5 -0 1 2 6 3 0 -2 -3 -3 -1 -2 -3 -2 -2 -1 -1
-1 -2 -3 -1 -2 -6 -4 -4 -13 -12 -5 -2 -1 -2 3 -4 0 0 -1 -3 -1 -2 1 2 -1 -1 -1 -1 2 -3 2 -2 -3 -1 -3 -2 -5 -6 -0 1 0 0 1 -0 -1 1 1 0 1 1 2 2 1 -1
-1 -6 -1 -1 -2 -2 -3 -8 -2 -5 -2 -1 -1 0 -2 -1 -3 -3 -0 -1 0 0 -1 -0 0 -9 -4 0 1 -1 -3 -4 -1 -2 -0 2 2 -1 3 2 -4 -2 -1 -1 0 -0 -2 -1 0 0 -1 -0 0 -2
-8 -3 -2 -3 -4 -4 -4 -4 -4 -3 -1 -0 -3 -2 -1 -2 -2 -2 -2 0 -1 -0 1 -2 1 1 -1 -0 -1 -1 -2 -3 -3 -1 1 2 1 1 2 7 5 1 -0 -1 1 2 3 5 3 -1 -1 -0 6 3
-5 -4 -3 -2 -3 -4 -3 -2 -2 -2 -1 1 2 1 1 -2 -2 1 0 0 1 1 -1 1 1 -1 -2 -1 -1 -1 0 2 0 -0 -2 -0 -1 -0 1 -1 -2 -3 1 1 2 1 3 5 5 1 -1 -5 -3 -0
-2 -2 -2 -1 -0 -0 2 1 1 -2 -2 -0 0 0 -1 -4 -0 -1 1 3 2 -1 1 0 -2 -2 -2 -1 -1 -1 -2 0 1 0 0 0 -0 -2 -2 -1 -2 -3 -3 -4 0 -0 -3 -4 -1 -1 -2 -1 -1 -2
-2 0 0 0 -0 -1 1 1 1 -1 0 -1 3 2 -1 3 0 -1 -1 5 6 -1 -0 -4 -4 -2 2 1 -0 -1 -0 -1 -1 0 1 0 -1 -1 0 2 2 2 2 2 1 -0 1 3 3 1 1 2 2 2
-4 -1 -2 -1 -1 -0 -0 3 0 -0 2 -0 -1 1 -1 -1 -1 -1 2 4 -2 -6 -3 -1 -1 2 0 -1 -1 -1 1 -1 0 0 2 2 0 -2 -3 -1 -2 -0 1 -1 -1 -0 1 1 1 1 0 -2 -0 -1
-0 1 1 -0 -1 -1 -3 0 -2 -1 -2 -2 2 0 -0 0 1 2 -1 0 -1 -2 1 2 1 0 -1 -0 1 0 -0 0 1 5 1 1 1 1 1 3 3 1 -1 -2 -1 -1 -1 1 1 -1 -1 -2 -3 -3
2 -1 0 1 -0 -3 1 -2 0 -1 0 -0 0 -1 -1 -0 1 0 -1 -1 -1 0 1 -0 -0 -0 -0 -0 -1 -0 -1 -1 1 1 -0 -2 -2 2 3 3 3 1 0 0 1 1 1 -1 -0 -2 -0 -1 -2 -1
-2 -2 -1 -2 3 -2 -1 -0 -1 0 -0 -0 -1 -2 -3 1 -1 0 -1 -3 -0 0 1 -0 -1 -1 -1 3 -1 -1 -1 1 2 -1 -0 0 2 3 1 2 1 -2 -0 0 -3 -5 -5 -4 -1 -1 -2 -1 -2 -4
-2 -2 -6 -3 -1 -3 -2 -1 -0 -2 -0 -0 -1 0 0 -1 -1 -3 -2 -1 -2 -2 -2 -1 -1 1 1 -0 -2 -1 -0 0 0 -0 2 1 -1 -2 -2 -3 -2 -3 -0 -1 -2 -2 -2 -2 -2 -1 -3 -2 -1 -0
-0 -3 -1 1 1 1 -1 2 2 -1 -0 -1 -1 -0 -2 -1 -2 -7 0 -1 -1 -1 -1 -1 0 2 1 -1 -1 0 1 0 -0 -0 0 -3 -1 -1 -0 -1 -2 -1 -0 1 0 -0 -1 -0 -2 -1 -2 -1 2 2
-3 2 -3 -1 1 2 -2 -0 -0 -1 -1 -1 2 -2 -3 -5 -7 -1 -3 -1 -1 -1 -0 1 1 -0 -2 -2 -0 1 0 0 0 1 3 -1 -0 -1 -0 1 1 0 0 0 -1 -1 -1 -1 -1 -1 -1 -1 -2 1
-0 0 5 0 1 0 -2 -3 -3 -2 1 1 -3 -1 -3 2 -0 -1 -1 -2 -0 -0 0 1 -0 -0 -2 -2 -1 -0 -1 -1 -2 -4 -4 -3 -4 -2 -1 -1 -1 -1 -1 -1 1 1 0 -0 -0 -1 -1 -0 0 1
-4 -0 1 1 -1 -2 -4 2 0 -1 -0 0 1 1 0 -1 -0 1 0 1 1 2 1 -1 -0 -1 -2 -2 -2 -3 -2 -2 -2 -0 -1 -1 -2 -2 -1 -0 -0 -0 -1 -1 -1 -1 1 1 1 0 -2 -2 -3 -2
1 3 2 1 -1 -1 -3 -0 -0 0 -0 -1 0 1 -0 -0 -2 -0 1 2 2 0 -1 -1 -0 -0 -1 -1 -1 -0 -0 -1 -1 -1 -2 -2 -1 -0 -1 -1 -1 -1 -1 -1 -1 -2 -2 -1 -2 -1 -1 -1 -1 0
2 -0 -1 0 -0 -1 1 -0 1 -0 0 1 -1 2 -0 -1 -3 1 -1 -1 -1 -1 -2 -1 -1 -2 -1 -1 -1 0 -1 -0 -0 -1 -2 -1 -1 -1 -1 -1 -0 0 0 -1 -1 -1 -1 -0 -1 -1 -1 -1 -1 -1
2 1 0 1 2 0 1 -0 -0 -1 2 0 0 0 1 -1 -3 0 -1 0 0 -1 -2 -1 -1 -1 -1 -2 -2 -2 1 0 -1 -2 -3 -2 -1 -1 -1 -1 0 0 -1 -1 -2 -1 -0 -0 -0 0 -0 -1 -1 -1
Height
1279 1285 1290 1295 1304 1315 1318 1325 1338 1345 1352 1356 1361 1364 1370 1375 1382 1388 1394 1401 1405 1414 1424 1426 1430 1434 1438 1440 1447 1450 1455 1457 1461 1472 1472 1475 1472 1462 1465 1461 1461 1464 1464 1464 1458 1455 1458 1442 1441 1449 1439 1433 1432 1432
1273 1276 1282 1291 1299 1307 1315 1330 1336 1343 1349 1354 1361 1366 1372 1378 1383 1387 1394 1402 1404 1409 1426 1429 1431 1435 1436 1439 1440 1445 1448 1449 1453 1462 1469 1467 1465 1464 1462 1472 1455 1460 1458 1463 1462 1455 1439 1437 1436 1434 1431 1430 1430 1430
1267 1273 1282 1289 1300 1309 1319 1326 1329 1337 1351 1358 1366 1369 1374 1378 1383 1387 1392 1402 1406 1416 1427 1430 1433 1436 1437 1438 1440 1444 1449 1448 1450 1451 1455 1459 1463 1463 1467 1460 1455 1453 1451 1455 1456 1441 1437 1434 1432 1431 1429 1428 1428 1426
1269 1274 1284 1293 1303 1313 1318 1319 1333 1341 1354 1363 1371 1375 1377 1379 1384 1389 1392 1403 1407 1415 1425 1435 1435 1436 1438 1438 1440 1442 1443 1447 1450 1450 1452 1456 1459 1455 1460 1456 1453 1448 1446 1447 1450 1438 1433 1430 1429 1428 1427 1426 1422 1419
1273 1280 1290 1302 1309 1315 1319 1331 1340 1352 1361 1367 1374 1378 1380 1382 1387 1392 1396 1404 1408 1411 1422 1431 1436 1439 1437 1438 1441 1443 1444 1446 1448 1449 1451 1454 1452 1456 1453 1452 1444 1438 1437 1447 1446 1434 1432 1428 1426 1425 1424 1422 1420 1419
1281 1290 1299 1308 1316 1323 1334 1342 1350 1361 1370 1377 1377 1383 1379 1383 1386 1394 1402 1410 1410 1411 1419 1429 1437 1439 1441 1443 1444 1445 1444 1444 1447 1446 1447 1447 1445 1450 1457 1451 1434 1431 1430 1431 1430 1428 1427 1426 1424 1422 1421 1420 1418 1417
1293 1305 1312 1318 1327 1336 1345 1354 1357 1369 1381 1383 1380 1381 1383 1379 1388 1396 1402 1411 1414 1413 1411 1429 1444 1443 1443 1444 1444 1443 1443 1444 1446 1448 1446 1442 1443 1444 1449 1439 1425 1428 1427 1425 1425 1425 1424 1423 1422 1421 1420 1419 1417 1416
1311 1318 1324 1331 1338 1345 1351 1359 1369 1374 1378 1375 1382 1380 1377 1388 1397 1404 1406 1411 1411 1406 1417 1436 1444 1442 1443 1442 1444 1445 1445 1444 1444 1444 1444 1442 1440 1440 1439 1419 1419 1419 1420 1419 1420 1420 1419 1419 1420 1419 1418 1417 1416 1414
1323 1329 1334 1341 1347 1354 1361 1366 1369 1378 1379 1379 1385 1384 1387 1395 1404 1409 1408 1410 1409 1417 1427 1434 1439 1445 1441 1442 1445 1446 1445 1443 1442 1441 1443 1443 1440 1437 1416 1415 1415 1417 1417 1417 1417 1417 1417 1418 1418 1417 1416 1415 1414 1413
1337 1343 1349 1354 1358 1365 1371 1376 1381 1383 1383 1385 1385 1384 1390 1407 1408 1406 1413 1413 1417 1424 1431 1434 1437 1442 1442 1442 1442 1444 1444 1444 1445 1436 1435 1439 1430 1416 1413 1412 1413 1414 1414 1415 1416 1417 1417 1417 1416 1416 1415 1413 1411 1410
1348 1353 1357 1362 1367 1372 1376 1379 1382 1383 1382 1383 1382 1393 1406 1406 1404 1409 1416 1422 1428 1432 1437 1438 1439 1438 1438 1440 1443 1441 1441 1438 1439 1436 1435 1430 1426 1415 1407 1407 1412 1413 1414 1415 1416 1416 1416 1416 1415 1414 1413 1411 1410 1408
1357 1362 1366 1370 1374 1378 1381 1384 1387 1385 1383 1384 1391 1398 1401 1403 1412 1423 1430 1430 1430 1431 1435 1436 1434 1434 1436 1438 1440 1440 1438 1438 1434 1430 1429 1430 1421 1417 1413 1412 1413 1415 1417 1417 1416 1416 1415 1413 1412 1411 1410 1408 1406 1405
1366 1370 1375 1378 1382 1385 1387 1387 1387 1385 1385 1386 1389 1399 1407 1420 1434 1427 1437 1431 1435 1430 1431 1431 1435 1435 1437 1438 1439 1439 1437 1438 1428 1433 1425 1423 1421 1419 1416 1415 1416 1417 1417 1415 1413 1412 1411 1409 1407 1407 1405 1404 1402 1400
1375 1378 1381 1383 1384 1386 1387 1388 1388 1389 1389 1393 1403 1420 1421 1430 1422 1422 1425 1426 1426 1429 1432 1434 1434 1434 1435 1437 1436 1435 1431 1428 1434 1427 1417 1420 1419 1418 1417 1416 1414 1413 1412 1411 1410 1408 1407 1406 1404 1403 1401 1400 1397 1395
1384 1386 1388 1390 1392 1391 1390 1389 1391 1392 1395 1403 1409 1423 1421 1417 1418 1418 1422 1428 1429 1431 1433 1434 1433 1433 1434 1435 1433 1432 1432 1430 1419 1420 1420 1418 1418 1416 1416 1415 1413 1411 1410 1409 1407 1404 1403 1402 1400 1399 1397 1395 1393 1391
1387 1388 1389 1391 1392 1392 1392 1393 1394 1398 1406 1408 1412 1414 1416 1416 1419 1422 1426 1428 1429 1430 1431 1431 1431 1434 1432 1430 1428 1430 1420 1417 1418 1416 1415 1416 1415 1414 1413 1411 1410 1408 1406 1405 1403 1402 1400 1399 1397 1395 1393 1391 1389 1387
1392 1392 1395 1396 1396 1397 1398 1399 1401 1404 1408 1410 1412 1413 1416 1419 1421 1424 1426 1426 1427 1428 1429 1427 1430 1428 1425 1425 1421 1418 1422 1419 1414 1414 1413 1413 1412 1410 1409 1407 1406 1405 1403 1402 1400 1399 1397 1396 1393 1392 1390 1388 1386 1384
1395 1397 1398 1399 1399 1400 1401 1402 1406 1408 1411 1412 1414 1416 1418 1419 1421 1422 1422 1423 1425 1424 1424 1424 1423 1422 1425 1416 1417 1415 1414 1413 1413 1412 1411 1410 1408 1407 1405 1403 1402 1402 1401 1399 1398 1396 1394 1392 1389 1387 1386 1384 1383 1381
1398 1399 1400 1401 1402 1403 1405 1407 1409 1410 1412 1413 1414 1415 1416 1417 1418 1418 1419 1420 1421 1422 1423 1422 1421 1420 1416 1412 1412 1412 1412 1411 1410 1409 1407 1406 1404 1403 1402 1401 1400 1399 1397 1395 1392 1391 1389 1387 1386 1383 1382 1380 1379 1377
1399 1400 1401 1402 1404 1404 1406 1408 1409 1409 1410 1411 1411 1411 1412 1413 1413 1414 1415 1417 1418 1420 1420 1418 1413 1409 1409 1408 1408 1408 1408 1407 1406 1405 1405 1403 1402 1401 1400 1398 1397 1396 1394 1393 1390 1388 1386 1385 1382 1381 1379 1377 1375 1373
1401 1401 1402 1403 1404 1405 1406 1406 1407 1408 1408 1408 1408 1408 1408 1408 1409 1409 1410 1412 1414 1413 1411 1407 1406 1406 1406 1406 1406 1405 1405 1404 1403 1402 1401 1400 1400 1399 1398 1397 1395 1393 1391 1389 1387 1385 1384 1381 1379 1377 1375 1373 1370 1368
1401 1402 1402 1403 1404 1405 1405 1406 1406 1406 1406 1405 1405 1405 1404 1404 1404 1404 1405 1406 1406 1402 1402 1402 1402 1403 1403 1403 1403 1402 1402 1401 1401 1399 1398 1398 1397 1396 1395 1394 1392 1390 1388 1386 1384 1382 1380 1378 1376 1373 1370 1367 1364 1360
1402 1402 1402 1403 1404 1404 1406 1404 1404 1404 1404 1403 1403 1403 1402 1401 1401 1403 1402 1400 1398 1398 1398 1398 1399 1400 1400 1400 1400 1400 1399 1398 1397 1396 1396 1395 1395 1394 1392 1391 1389 1387 1385 1383 1381 1379 1377 1374 1371 1368 1364 1360 1355 1351
1401 1401 1401 1401 1402 1404 1404 1403 1404 1403 1402 1402 1402 1403 1401 1400 1401 1400 1400 1395 1394 1395 1396 1397 1398 1398 1398 1398 1398 1397 1397 1396 1395 1394 1394 1393 1393 1392 1390 1388 1386 1384 1381 1379 1377 1374 1371 1368 1365 1361 1357 1353 1349 1344
1402 1402 1402 1401 1401 1403 1405 1404 1404 1403 1406 1403 1404 1405 1402 1401 1403 1402 1398 1393 1392 1393 1395 1396 1397 1397 1396 1396 1395 1395 1394 1394 1393 1393 1392 1391 1390 1388 1387 1385 1383 1381 1378 1375 1372 1369 1366 1363 1359 1355 1351 1347 1343 1338
1401 1398 1399 1398 1400 1402 1402 1406 1406 1406 1403 1404 1403 1400 1401 1403 1407 1403 1393 1390 1391 1392 1393 1394 1395 1394 1394 1393 1393 1393 1393 1393 1392 1392 1391 1389 1387 1385 1384 1381 1379 1378 1375 1372 1368 1364 1361 1358 1354 1350 1346 1342 1337 1333
1398 1395 1393 1394 1395 1396 1397 1397 1397 1399 1403 1405 1401 1402 1404 1410 1407 1393 1389 1390 1390 1391 1392 1392 1392 1392 1392 1392 1391 1391 1391 1391 1390 1390 1389 1387 1386 1384 1382 1379 1376 1374 1371 1368 1365 1362 1358 1354 1350 1346 1342 1338 1334 1329
1391 1391 1392 1390 1392 1393 1395 1396 1398 1398 1395 1394 1395 1400 1402 1399 1393 1388 1388 1389 1390 1390 1390 1390 1390 1390 1390 1390 1390 1390 1389 1389 1389 1389 1388 1386 1384 1382 1379 1376 1374 1371 1368 1364 1361 1358 1355 1351 1347 1343 1339 1335 1330 1326
1388 1387 1388 1388 1390 1390 1390 1391 1390 1388 1388 1388 1390 1392 1388 1385 1385 1385 1386 1386 1387 1387 1387 1388 1388 1388 1388 1389 1389 1388 1388 1387 1387 1386 1385 1383 1381 1379 1375 1372 1370 1367 1364 1361 1358 1355 1352 1349 1346 1342 1338 1333 1329 1324
1383 1383 1384 1384 1386 1386 1383 1384 1383 1384 1385 1385 1385 1385 1384 1383 1383 1383 1383 1383 1383 1383 1383 1383 1384 1384 1385 1386 1386 1386 1386 1385 1385 1384 1382 1380 1377 1375 1372 1370 1367 1364 1361 1358 1355 1353 1351 1347 1344 1340 1336 1332 1327 1323
1379 1380 1380 1380 1380 1380 1381 1381 1381 1382 1382 1382 1382 1381 1381 1380 1378 1378 1377 1378 1379 1379 1380 1381 1381 1382 1383 1383 1384 1384 1384 1383 1382 1381 1379 1377 1374 1372 1370 1368 1365 1362 1360 1357 1354 1352 1349 1346 1343 1339 1336 1332 1328 1324
1376 1376 1377 1378 1377 1377 1378 1379 1378 1378 1377 1376 1376 1377 1377 1377 1377 1374 1373 1374 1374 1375 1377 1378 1379 1379 1380 1381 1382 1382 1381 1381 1379 1378 1376 1374 1372 1370 1368 1366 1364 1361 1359 1356 1354 1351 1349 1346 1343 1340 1337 1334 1331 1328
1373 1374 1374 1374 1374 1375 1376 1378 1377 1376 1375 1374 1374 1374 1374 1375 1373 1371 1370 1370 1371 1372 1374 1375 1377 1378 1379 1379 1380 1380 1380 1379 1377 1375 1374 1372 1370 1368 1366 1365 1362 1360 1358 1356 1354 1352 1350 1347 1345 1342 1340 1337 1334 1331